Weather History for Wright-Patt AFB, OH

Change the Weather History Date:

Monday, January 6, 2014

  Actual Average Record
Temperature  
Mean Temperature 7 °F -  
Max Temperature 23 °F 36 °F 60 °F (1998)
Min Temperature -9 °F 21 °F -9 °F (2014)
Degree Days  
Heating Degree Days 58    
Moisture  
Dew Point -6 °F    
Average Humidity 70    
Maximum Humidity 86    
Minimum Humidity 57    
Precipitation  
Precipitation 0.06 in - - ()
Snow  
Snow 0.00 in - - ()
Snow Depth 2.00 in    
Sea Level Pressure  
Sea Level Pressure 30.09 in    
Wind  
Wind Speed 19 mph (West)    
Max Wind Speed 28 mph    
Max Gust Speed 36 mph    
Visibility 8 miles    
Events Snow    
Averages and records for this station are not official NWS values.
T = Trace of Precipitation, MM = Missing Value Source: NWS Daily Summary

Daily Weather History Graph

Daily Weather History Graph

Search for Another Location

Airport:

Trip Planner

Search our weather history database for the weather conditions in past years. The results will help you decide how hot, cold, wet, or windy it might be!

Date:

Astronomy

Jan. 06, 2014 Rise Set
Actual Time 7:57 AM EST 5:26 PM EST
Civil Twilight 7:27 AM EST 5:56 PM EST
Nautical Twilight 6:53 AM EST 6:30 PM EST
Astronomical Twilight 6:21 AM EST 7:03 PM EST
Moon 11:13 AM EST (1/6) 11:58 PM EST (1/6)
Length of Visible Light 10h 29m
Length of Day
9h 29m
Waxing Crescent, 34% of the Moon is Illuminated
Jan 6
Waxing Crescent
Jan 7
First Quarter
Jan 15
Full
Jan 24
Last Quarter
Jan 30
New

Hourly Weather History & Observations

Time (EST) Temp. Windchill Dew Point Humidity Pressure Visibility Wind Dir Wind Speed Gust Speed Precip Events Conditions
12:45 AM 23.0 °F 9.2 °F 17.6 °F 80% 29.69 in 6.0 mi WNW 17.3 mph 27.6 mph N/A Snow Light Snow
12:58 AM 22.8 °F 7.4 °F 17.8 °F 81% 29.74 in 10.0 mi WNW 21.9 mph 28.8 mph 0.00 in Snow Light Snow
1:51 AM 21.2 °F 7.3 °F 15.8 °F 80% 29.75 in 10.0 mi WNW 16.1 mph 25.3 mph N/A Snow Light Snow
1:58 AM 21.9 °F 7.8 °F 16.5 °F 80% 29.80 in 10.0 mi West 17.3 mph 23.0 mph 0.00 in Snow Light Snow
2:31 AM 19.4 °F 3.2 °F 15.8 °F 86% 29.80 in 2.5 mi West 20.7 mph 29.9 mph N/A Snow Light Snow
2:56 AM 14.0 °F -3.9 °F 10.4 °F 86% 29.84 in 3.0 mi West 20.7 mph 29.9 mph N/A Snow Light Snow
2:58 AM 14.9 °F -3.1 °F 9.9 °F 80% 29.88 in 3.0 mi West 21.9 mph 29.9 mph 0.01 in Snow Light Snow
3:08 AM 14.0 °F -5.5 °F 8.6 °F 79% 29.85 in 4.0 mi West 25.3 mph 33.4 mph N/A Snow Light Snow
3:43 AM 12.2 °F -4.8 °F 5.0 °F 73% 29.90 in 9.0 mi West 17.3 mph 29.9 mph N/A Snow Light Snow
3:58 AM 10.8 °F -8.1 °F 4.3 °F 75% 29.96 in 6.0 mi West 20.7 mph 35.7 mph 0.00 in Snow Light Snow
4:08 AM 10.4 °F -10.3 °F 3.2 °F 73% 29.91 in 5.0 mi West 25.3 mph 31.1 mph N/A Snow Light Snow
4:18 AM 8.6 °F -11.9 °F 3.2 °F 79% 29.92 in 2.5 mi West 23.0 mph 32.2 mph N/A Snow Light Snow
4:38 AM 8.6 °F -8.9 °F 3.2 °F 79% 29.94 in 2.0 mi West 16.1 mph 29.9 mph N/A Snow Light Snow
4:48 AM 6.8 °F -13.8 °F 1.4 °F 79% 29.94 in 3.0 mi West 21.9 mph 28.8 mph N/A Snow Light Snow
4:58 AM 7.0 °F -8.3 °F 0.9 °F 76% 30.00 in 5.0 mi West 11.5 mph 27.6 mph 0.05 in Snow Light Snow
5:08 AM 5.0 °F -14.2 °F -0.4 °F 78% 29.97 in 4.0 mi West 17.3 mph 29.9 mph N/A Snow Light Snow
5:58 AM 3.6 °F -14.8 °F -2.6 °F 76% 30.05 in 9.0 mi West 15.0 mph 23.0 mph 0.00 in Snow Light Snow
6:58 AM 1.8 °F -20.0 °F -5.6 °F 71% 30.08 in 8.0 mi West 20.7 mph 28.8 mph 0.00 in Snow Blowing Snow
7:23 AM 1.4 °F -18.2 °F -7.6 °F 66% 30.05 in 10.0 mi West 16.1 mph 23.0 mph N/A Snow Blowing Snow
7:55 AM -0.4 °F -22.3 °F -9.4 °F 66% 30.07 in 10.0 mi WSW 19.6 mph 26.5 mph N/A Snow Low Drifting Snow
7:58 AM -0.4 °F -22.3 °F -8.7 °F 68% 30.12 in 10.0 mi WSW 19.6 mph 26.5 mph 0.00 in Snow Low Drifting Snow
8:58 AM -3.6 °F -26.5 °F -13.0 °F 64% 30.17 in 10.0 mi West 19.6 mph 26.5 mph 0.00 in   Clear
9:30 AM -4.0 °F -27.0 °F -14.8 °F 60% 30.13 in 6.0 mi West 19.6 mph 34.5 mph N/A Snow Blowing Snow
9:58 AM -5.1 °F -26.6 °F -14.6 °F 63% 30.21 in 10.0 mi West 16.1 mph 23.0 mph N/A   Clear
10:25 AM -5.8 °F -32.0 °F -14.8 °F 65% 30.15 in 4.0 mi WSW 25.3 mph 27.6 mph N/A Snow Blowing Snow
10:58 AM -5.4 °F -28.9 °F -14.6 °F 65% 30.23 in 6.0 mi West 19.6 mph 28.8 mph N/A Snow Blowing Snow
11:58 AM -6.2 °F -31.0 °F -16.1 °F 62% 30.22 in 6.0 mi West 21.9 mph 26.5 mph N/A Snow Blowing Snow
12:58 PM -5.8 °F -28.8 °F -15.0 °F 65% 30.22 in 6.0 mi West 18.4 mph 26.5 mph N/A Snow Blowing Snow
1:58 PM -5.4 °F -29.5 °F -14.4 °F 65% 30.22 in 9.0 mi WSW 20.7 mph - N/A   Scattered Clouds
2:18 PM -5.8 °F -28.8 °F -14.8 °F 65% 30.17 in 9.0 mi WSW 18.4 mph 27.6 mph N/A   Mostly Cloudy
2:48 PM -5.8 °F -31.0 °F -16.6 °F 60% 30.17 in 10.0 mi WSW 23.0 mph 28.8 mph N/A   Scattered Clouds
2:58 PM -5.3 °F -30.3 °F -15.5 °F 61% 30.25 in 10.0 mi WSW 23.0 mph 28.8 mph N/A   Scattered Clouds
3:58 PM -6.2 °F -31.0 °F -16.2 °F 62% 30.28 in 10.0 mi WSW 21.9 mph 28.8 mph N/A   Partly Cloudy
4:58 PM -7.1 °F -31.6 °F -18.6 °F 57% 30.31 in 10.0 mi WSW 20.7 mph 34.5 mph N/A   Partly Cloudy
5:58 PM -8.1 °F -36.0 °F -19.1 °F 59% 30.33 in 10.0 mi WSW 27.6 mph 33.4 mph N/A   Partly Cloudy
6:58 PM -8.9 °F -32.1 °F -18.0 °F 64% 30.36 in 9.0 mi WSW 17.3 mph 20.7 mph N/A   Scattered Clouds
7:58 PM -8.7 °F -34.8 °F -18.8 °F 61% 30.38 in 10.0 mi WSW 23.0 mph 26.5 mph N/A   Partly Cloudy
8:58 PM -9.4 °F -31.4 °F -20.0 °F 60% 30.40 in 10.0 mi WSW 15.0 mph 28.8 mph N/A   Clear
9:58 PM -9.2 °F -32.6 °F -18.9 °F 62% 30.41 in 10.0 mi WSW 17.3 mph - N/A   Clear
10:58 PM -8.7 °F -31.9 °F -17.7 °F 65% 30.41 in 10.0 mi WSW 17.3 mph 27.6 mph N/A   Partly Cloudy
11:58 PM -8.7 °F -31.9 °F -17.5 °F 65% 30.41 in 10.0 mi WSW 17.3 mph 24.2 mph N/A   Clear